Tracking 35237 objects as of 5-Sep-2026
HD Live streaming from Space Station
objects crossing your sky now

HYDRA-2

Track HYDRA-2 now!
10-day predictions


NORAD ID: 67389
Int'l Code: 2026-004AC
Launch date: January 11, 2026
Source: Spain (SPN)
Launch site: AIR FORCE WESTERN TEST RANGE (AFWTR)
Your satellite tracking list
Your tracking list is empty




NASA's NSSDC Master Catalog

Two Line Element Set (TLE):
1 67389U 26004AC  26247.44713604  .00002211  00000-0  10804-3 0  9997
2 67389  97.4640 245.5146 0005087  70.7044 289.4740 15.19281104 35783
Source of the keplerian elements: AFSPC